TimeIST,TemperatureF,Dew PointF,Humidity,Sea Level PressureIn,VisibilityMPH,Wind Direction,Wind SpeedMPH,Gust SpeedMPH,PrecipitationIn,Events,Conditions,WindDirDegrees,DateUTC
12:10 AM,78.8,71.6,78,29.89,3.1,NW,3.5,-,N/A,,Haze,310,2013-03-14 18:40:00
12:40 AM,78.8,71.6,78,29.89,3.1,NW,3.5,-,N/A,,Haze,310,2013-03-14 19:10:00
1:10 AM,78.8,71.6,78,29.89,3.1,NNW,4.6,-,N/A,,Haze,330,2013-03-14 19:40:00
1:40 AM,77.0,71.6,83,29.89,3.1,SSW,4.6,-,N/A,,Haze,200,2013-03-14 20:10:00
2:10 AM,77.0,71.6,83,29.89,2.5,North,3.5,-,N/A,,Haze,10,2013-03-14 20:40:00
2:30 AM,75,71,83,29.88,1,North,3.5,,,,Haze,0,2013-03-14 21:00:00
2:40 AM,77.0,71.6,83,29.89,2.5,NE,4.6,-,N/A,,Haze,40,2013-03-14 21:10:00
3:10 AM,77.0,71.6,83,29.89,2.2,North,4.6,-,N/A,,Haze,10,2013-03-14 21:40:00
3:40 AM,77.0,71.6,83,29.86,1.9,NNW,4.6,-,N/A,,Haze,340,2013-03-14 22:10:00
4:10 AM,77.0,71.6,83,29.86,1.9,NNW,4.6,-,N/A,,Haze,330,2013-03-14 22:40:00
4:40 AM,77.0,71.6,83,29.86,1.9,NNW,4.6,-,N/A,,Haze,340,2013-03-14 23:10:00
5:10 AM,77.0,71.6,83,29.86,1.9,NNW,5.8,-,N/A,,Haze,340,2013-03-14 23:40:00
5:30 AM,74,71,88,29.87,1,North,3.5,,,,Haze,0,2013-03-15 00:00:00
5:40 AM,77.0,71.6,83,29.86,1.9,NE,4.6,-,N/A,,Haze,40,2013-03-15 00:10:00
6:10 AM,75.2,69.8,83,29.89,1.9,NNW,5.8,-,N/A,,Haze,340,2013-03-15 00:40:00
6:40 AM,75.2,68.0,78,29.89,1.9,East,3.5,-,N/A,,Haze,80,2013-03-15 01:10:00
7:10 AM,75.2,68.0,78,29.92,1.9,ESE,4.6,-,N/A,,Haze,120,2013-03-15 01:40:00
7:40 AM,75.2,68.0,78,29.92,1.9,East,4.6,-,N/A,,Haze,90,2013-03-15 02:10:00
8:10 AM,77.0,68.0,74,29.95,1.9,Calm,Calm,-,N/A,,Haze,0,2013-03-15 02:40:00
8:30 AM,75,70,79,29.94,1,Calm,Calm,,,,Haze,,2013-03-15 03:00:00
8:40 AM,78.8,66.2,65,29.95,1.9,NNW,3.5,-,N/A,,Haze,330,2013-03-15 03:10:00
9:40 AM,84.2,64.4,51,29.95,2.5,NE,3.5,-,N/A,,Smoke,50,2013-03-15 04:10:00
10:10 AM,84.2,60.8,45,29.95,2.5,NNW,4.6,-,N/A,,Smoke,330,2013-03-15 04:40:00
11:30 AM,90,65,34,29.93,1,West,11.5,,,,Smoke,270,2013-03-15 06:00:00
11:40 AM,89.6,66.2,46,29.92,3.1,WNW,10.4,-,N/A,,Smoke,300,2013-03-15 06:10:00
12:10 PM,87.8,66.2,49,29.92,3.1,WNW,11.5,-,N/A,,Smoke,300,2013-03-15 06:40:00
12:40 PM,87.8,68.0,52,29.89,3.1,NW,9.2,-,N/A,,Smoke,310,2013-03-15 07:10:00
1:10 PM,87.8,68.0,52,29.89,3.1,WNW,12.7,-,N/A,,Smoke,300,2013-03-15 07:40:00
1:40 PM,89.6,68.0,49,29.86,3.1,WNW,10.4,-,N/A,,Smoke,300,2013-03-15 08:10:00
2:10 PM,89.6,64.4,43,29.83,3.1,WNW,9.2,-,N/A,,Smoke,300,2013-03-15 08:40:00
2:30 PM,91,65,32,29.83,2,NW,11.5,,,,Smoke,320,2013-03-15 09:00:00
2:40 PM,91.4,64.4,41,29.83,3.1,NNW,11.5,-,N/A,,Smoke,330,2013-03-15 09:10:00
3:10 PM,91.4,64.4,41,29.83,3.1,WNW,13.8,-,N/A,,Smoke,300,2013-03-15 09:40:00
3:40 PM,89.6,64.4,43,29.80,3.1,NW,11.5,-,N/A,,Smoke,310,2013-03-15 10:10:00
4:10 PM,89.6,66.2,46,29.80,3.1,NW,8.1,19.6,N/A,,Smoke,310,2013-03-15 10:40:00
4:40 PM,89.6,62.6,40,29.80,3.1,NW,8.1,19.6,N/A,,Smoke,320,2013-03-15 11:10:00
5:10 PM,87.8,62.6,43,29.80,3.1,NW,10.4,21.9,N/A,,Smoke,310,2013-03-15 11:40:00
5:30 PM,88,64,34,29.80,1,NNW,9.2,,,,Smoke,340,2013-03-15 12:00:00
5:40 PM,87.8,64.4,46,29.80,3.1,NW,11.5,-,N/A,,Smoke,310,2013-03-15 12:10:00
6:10 PM,86.0,62.6,45,29.80,3.1,NW,10.4,-,N/A,,Smoke,310,2013-03-15 12:40:00
6:40 PM,86.0,64.4,48,29.80,3.1,WNW,10.4,-,N/A,,Smoke,300,2013-03-15 13:10:00
7:10 PM,84.2,64.4,51,29.83,2.5,NW,11.5,-,N/A,,Smoke,310,2013-03-15 13:40:00
7:40 PM,82.4,66.2,58,29.83,2.5,NW,9.2,-,N/A,,Smoke,310,2013-03-15 14:10:00
8:10 PM,82.4,66.2,58,29.83,2.5,WNW,9.2,-,N/A,,Smoke,300,2013-03-15 14:40:00
8:30 PM,82,68,54,29.84,1,NW,9.2,,,,Smoke,320,2013-03-15 15:00:00
8:40 PM,82.4,68.0,62,29.86,2.5,WNW,8.1,19.6,N/A,,Smoke,300,2013-03-15 15:10:00
9:10 PM,82.4,68.0,62,29.86,2.5,NW,5.8,-,N/A,,Smoke,320,2013-03-15 15:40:00
9:40 PM,80.6,68.0,65,29.89,2.5,NW,5.8,-,N/A,,Smoke,310,2013-03-15 16:10:00
10:10 PM,80.6,68.0,65,29.89,2.5,NNW,5.8,-,N/A,,Smoke,340,2013-03-15 16:40:00
10:40 PM,80.6,68.0,65,29.89,2.5,NW,4.6,-,N/A,,Smoke,310,2013-03-15 17:10:00
11:10 PM,80.6,68.0,65,29.89,2.5,NW,4.6,-,N/A,,Smoke,310,2013-03-15 17:40:00
11:30 PM,80,70,64,29.88,1,NW,9.2,,,,Smoke,320,2013-03-15 18:00:00
11:40 PM,80.6,69.8,70,29.89,2.5,NW,4.6,-,N/A,,Smoke,310,2013-03-15 18:10:00